Wind_Speed
14 14 14 13 13 14 14 14 14 14 14 15 15 15 15 16 17 17 17 17 17 17 18 18 18 19 19 19 18 19 20 21 22 22 23 23 25 25 26 27 28 29 30 31
14 14 13 13 13 14 14 13 13 13 13 14 15 15 14 14 16 16 16 17 17 16 17 17 18 19 19 19 19 19 19 19 20 21 22 23 23 24 26 27 27 30 31 32
13 13 13 14 14 14 14 13 12 12 13 13 13 13 13 12 13 14 16 16 17 17 17 17 17 18 19 19 19 19 19 19 20 20 21 22 22 23 25 27 28 29 29 30
12 13 13 14 14 14 14 13 11 11 11 12 12 13 13 13 13 13 14 16 16 17 18 17 17 18 18 19 19 19 19 18 18 20 21 21 21 23 25 26 27 28 29 29
12 12 12 12 12 12 12 12 11 10 10 11 11 12 12 13 14 13 14 15 16 16 16 16 17 17 17 18 18 18 18 18 19 20 21 21 22 23 24 25 25 27 28 28
12 12 11 10 10 10 10 11 11 11 11 12 11 13 12 13 13 13 14 14 15 16 16 16 16 16 17 18 18 18 19 19 20 21 22 22 23 24 24 25 25 25 26 26
13 12 11 10 11 11 11 11 12 13 13 13 12 13 13 13 13 14 15 16 16 16 16 16 16 17 18 18 18 19 20 20 21 22 23 24 24 25 25 25 24 24 25 27
14 13 13 12 12 13 12 12 13 14 14 14 13 13 13 14 14 15 15 16 17 17 18 18 17 17 18 18 19 20 20 21 22 23 24 24 25 26 26 26 25 26 26 27
16 15 15 14 14 15 14 13 14 15 15 15 15 14 14 15 15 16 17 18 18 18 19 19 18 18 19 19 20 21 21 22 23 24 25 25 25 26 27 26 27 28 28 29
17 17 16 16 16 15 15 15 15 16 16 16 16 15 15 15 17 18 19 19 19 19 19 19 19 19 20 21 22 22 23 23 24 24 25 26 26 27 27 27 29 29 29 29
18 18 18 17 17 17 16 16 17 17 18 19 18 17 17 18 18 19 20 21 20 20 20 20 21 21 21 22 23 22 23 24 24 24 25 26 27 27 28 28 29 29 30 30
19 19 19 19 19 19 19 19 19 19 19 20 20 19 18 19 20 20 22 22 23 22 22 23 22 23 23 23 23 24 24 25 25 26 26 26 28 28 28 29 29 29 30 31
21 20 20 20 21 21 21 21 21 21 21 21 21 19 20 20 21 21 22 23 24 24 24 24 24 24 24 24 24 25 25 26 27 28 28 28 29 29 29 30 30 30 30 30
24 23 23 23 23 23 23 23 23 23 23 23 22 21 21 22 23 23 24 24 25 25 25 25 25 25 25 25 26 26 26 26 27 28 29 29 29 29 30 31 31 30 30 31
26 26 26 26 25 25 25 24 24 25 25 26 24 24 23 24 25 25 25 26 26 26 26 26 26 26 27 27 27 27 27 28 29 29 30 29 30 30 31 32 32 32 32 32
28 28 28 28 28 28 27 26 26 25 26 26 26 25 25 26 28 28 27 27 28 27 27 27 27 28 28 28 28 28 28 28 29 30 30 30 30 31 32 32 32 33 33 33
30 31 31 31 31 31 30 28 28 28 28 28 27 27 27 28 28 28 28 28 28 29 29 29 29 29 30 29 29 29 29 30 30 31 31 31 31 31 32 32 33 34 34 34
33 33 34 34 34 35 31 31 31 31 31 31 30 29 29 29 29 29 29 29 29 29 29 30 30 30 30 30 30 30 31 31 32 32 32 32 31 31 32 32 34 34 35 35
35 35 36 36 37 37 34 33 34 35 34 34 34 33 32 31 31 31 31 31 31 31 31 31 31 31 31 32 32 32 32 33 33 33 33 33 33 33 34 34 35 35 35 36
36 36 37 38 39 39 36 35 36 36 36 35 36 35 34 34 33 33 33 34 33 34 33 33 33 34 33 34 34 34 34 34 34 34 34 34 34 35 35 36 37 37 37 37
38 38 38 39 40 39 37 37 37 38 37 37 37 37 37 36 35 35 35 36 36 35 35 35 35 36 36 35 35 35 35 35 36 36 35 35 36 36 37 38 38 38 38 39
40 40 40 40 41 40 39 39 39 39 40 39 39 39 38 38 37 37 37 38 38 38 37 37 37 37 37 37 37 37 37 37 37 38 38 38 38 38 38 39 39 39 38 38
43 42 42 42 42 41 41 41 42 41 41 40 40 40 40 39 39 39 39 39 39 39 39 39 39 39 39 39 39 39 39 39 39 39 40 40 40 40 39 39 39 38 38 38
45 45 45 45 43 43 43 43 43 43 42 42 43 42 42 42 42 41 40 40 41 41 41 41 41 41 41 41 42 41 41 41 41 41 42 42 42 41 40 39 39 38 38 38
47 46 47 47 45 45 44 45 45 45 45 44 44 44 44 45 44 43 43 43 43 43 43 43 43 43 43 43 43 43 43 43 43 43 43 43 42 41 41 40 40 40 39 39
48 48 50 49 48 48 46 46 47 47 46 46 46 46 46 46 46 46 45 46 46 45 45 45 45 44 44 44 44 44 44 44 44 44 44 44 43 43 42 41 41 41 41 40
Wind_Direction
279 277 272 264 262 264 267 267 267 265 263 260 261 264 264 258 254 253 254 258 261 266 268 271 274 277 276 277 280 283 285 286 285 284 281 277 275 275 274 275 277 276 276 276
279 276 272 268 264 265 267 268 265 263 263 263 263 263 264 258 252 253 257 259 264 266 269 273 276 278 279 278 281 284 286 287 288 288 284 279 277 277 276 278 279 277 277 278
282 276 273 271 267 267 265 264 265 264 264 265 267 262 260 258 255 257 260 264 267 268 269 272 275 278 279 278 281 283 286 288 289 291 288 282 279 279 279 280 279 279 279 278
281 275 272 272 268 264 262 262 265 265 263 264 266 262 258 260 259 261 264 268 270 271 271 273 279 279 279 279 281 282 284 288 289 292 292 287 284 283 282 282 282 281 280 281
281 278 274 267 264 264 265 263 263 263 263 264 265 266 262 263 262 265 269 272 273 273 277 277 279 280 280 279 280 282 283 287 290 294 294 291 288 287 287 286 285 284 283 283
281 279 274 265 260 261 263 263 265 267 266 266 269 269 265 264 268 271 271 275 277 278 280 281 280 280 281 281 281 282 284 287 290 293 294 293 290 289 289 287 285 286 284 285
273 273 269 264 261 260 259 265 272 272 270 269 270 270 266 265 269 272 272 273 277 278 281 281 280 282 283 282 284 284 286 288 291 294 295 294 290 289 290 287 287 287 287 286
269 269 269 264 262 263 263 269 279 281 277 269 270 272 270 269 270 273 275 275 277 277 280 281 281 283 283 284 286 288 289 290 292 294 295 294 292 289 288 288 286 289 291 289
268 268 266 265 263 263 264 270 278 280 276 272 273 276 275 275 272 272 275 277 278 279 280 282 281 282 283 284 286 288 290 291 292 293 294 293 293 293 291 290 288 287 290 291
268 269 267 263 260 261 266 275 278 276 277 278 278 281 281 280 277 274 275 277 279 281 283 283 281 281 284 285 285 286 288 291 292 291 292 292 292 294 293 293 292 289 289 290
266 267 266 263 262 264 268 272 274 276 278 281 284 284 281 282 280 275 274 276 279 281 282 283 281 281 282 283 284 287 288 289 291 292 292 291 292 294 295 294 294 291 289 289
265 265 265 264 263 265 267 271 272 274 276 278 282 284 282 281 282 279 278 278 279 280 281 281 280 281 282 283 284 285 287 288 289 291 291 291 291 293 295 295 294 293 291 290
260 261 263 264 265 265 268 270 272 273 274 275 278 282 284 283 282 282 281 280 279 280 280 281 281 281 283 284 285 286 286 288 290 291 292 292 292 293 294 295 294 294 292 290
259 260 263 265 268 270 271 272 273 272 273 275 276 279 279 282 282 282 282 281 280 279 279 280 281 282 282 284 285 287 287 289 290 292 293 293 293 294 295 296 295 293 291 290
260 261 262 263 265 267 270 271 272 273 275 276 277 277 277 277 278 279 279 279 279 280 279 279 280 281 282 284 285 286 287 288 290 292 293 294 294 293 294 295 295 293 292 292
261 263 263 263 263 265 267 269 270 271 273 276 278 278 278 277 277 278 278 278 279 278 278 278 279 281 282 283 284 285 287 288 290 292 293 294 294 294 294 294 295 294 295 295
262 263 264 263 263 264 266 268 268 269 272 275 277 278 278 278 279 278 278 278 278 277 277 277 278 280 281 282 283 284 286 288 289 290 292 294 294 295 295 294 294 294 293 294
265 265 265 265 264 264 268 268 269 269 270 273 275 276 277 277 278 279 279 278 278 279 279 279 278 280 281 283 284 285 286 288 290 290 291 293 294 295 296 297 296 294 294 294
267 267 268 268 267 267 268 271 271 271 272 273 274 274 274 276 278 278 279 279 279 279 279 279 279 279 280 282 283 285 287 288 289 290 290 291 292 294 296 297 296 296 295 295
268 267 268 269 269 270 271 272 272 272 272 273 274 273 273 275 276 278 279 279 278 278 278 278 279 279 280 281 282 283 285 287 289 290 290 290 291 293 294 296 295 295 294 295
268 269 268 268 269 270 271 271 272 273 275 275 274 273 273 275 277 278 278 278 278 278 278 278 279 279 281 282 283 283 284 286 287 288 289 290 291 292 293 294 294 294 294 295
267 267 267 267 267 269 270 271 271 273 273 274 273 273 274 275 275 276 277 277 276 276 277 278 279 280 281 282 283 284 284 285 286 287 288 289 291 292 292 292 293 293 294 294
265 265 266 266 267 269 269 270 270 270 271 271 271 272 272 273 274 275 275 275 276 276 277 278 278 279 280 281 282 283 284 285 286 287 288 289 289 290 291 292 292 293 294 294
264 264 264 265 267 268 268 268 269 269 269 269 269 270 271 272 273 273 274 274 275 276 277 278 279 279 280 281 281 282 284 285 286 286 287 288 289 289 290 291 291 292 292 293
264 264 264 265 267 268 268 268 268 268 268 268 268 269 270 271 272 273 272 273 274 275 276 277 277 279 280 280 281 281 282 284 285 286 288 288 288 288 289 290 290 291 291 291
263 264 265 265 266 266 266 266 267 268 268 268 268 269 270 271 271 271 271 272 273 274 275 276 277 278 279 280 280 281 281 283 285 286 286 286 287 287 287 288 289 289 290 290
Height
5752 5752 5752 5752 5752 5752 5752 5752 5752 5753 5753 5753 5753 5753 5754 5754 5754 5755 5755 5756 5756 5756 5755 5755 5754 5753 5751 5750 5749 5747 5745 5743 5740 5739 5737 5736 5735 5734 5734 5733 5732 5732 5731 5729
5749 5748 5748 5747 5747 5748 5748 5748 5748 5749 5749 5749 5749 5749 5749 5749 5750 5751 5751 5751 5751 5751 5751 5750 5749 5748 5747 5745 5744 5742 5740 5738 5736 5733 5732 5730 5729 5728 5728 5727 5726 5725 5723 5722
5744 5744 5743 5743 5743 5743 5744 5745 5745 5745 5745 5744 5745 5745 5745 5746 5746 5746 5747 5747 5747 5746 5746 5745 5745 5744 5742 5741 5739 5738 5736 5734 5731 5729 5727 5725 5724 5723 5722 5720 5719 5717 5715 5714
5740 5739 5739 5738 5739 5739 5740 5741 5741 5741 5741 5741 5742 5742 5743 5743 5743 5742 5743 5742 5742 5741 5741 5740 5740 5739 5738 5736 5735 5733 5731 5729 5727 5725 5722 5721 5719 5718 5716 5714 5712 5710 5708 5706
5737 5736 5735 5735 5736 5736 5737 5737 5738 5738 5738 5738 5738 5738 5740 5739 5739 5739 5739 5738 5737 5737 5736 5736 5735 5734 5733 5731 5730 5728 5726 5725 5723 5720 5718 5716 5714 5712 5709 5707 5705 5703 5701 5699
5734 5732 5732 5732 5732 5733 5733 5734 5735 5734 5734 5735 5735 5735 5736 5736 5736 5736 5735 5734 5733 5733 5732 5731 5730 5729 5728 5726 5725 5724 5722 5720 5718 5715 5713 5711 5709 5706 5703 5701 5699 5697 5695 5693
5730 5730 5729 5729 5730 5730 5731 5732 5732 5731 5731 5732 5732 5731 5733 5733 5732 5732 5731 5730 5729 5728 5727 5726 5725 5724 5723 5722 5720 5719 5717 5715 5713 5710 5708 5706 5703 5700 5697 5695 5693 5691 5688 5686
5727 5727 5727 5727 5727 5728 5728 5729 5729 5728 5728 5729 5728 5728 5730 5729 5728 5727 5727 5726 5725 5723 5722 5721 5720 5719 5718 5717 5715 5714 5712 5710 5707 5705 5703 5700 5697 5694 5692 5689 5687 5685 5682 5680
5722 5723 5723 5723 5724 5725 5725 5725 5725 5725 5724 5724 5724 5725 5725 5724 5724 5723 5722 5720 5719 5718 5717 5716 5715 5714 5713 5712 5710 5708 5706 5704 5702 5700 5697 5694 5691 5688 5686 5683 5680 5678 5675 5673
5718 5719 5719 5719 5720 5720 5721 5721 5721 5720 5720 5720 5720 5721 5721 5719 5719 5718 5716 5715 5714 5713 5712 5711 5710 5709 5708 5706 5705 5703 5701 5699 5696 5693 5690 5688 5685 5682 5679 5676 5673 5670 5668 5665
5714 5714 5714 5715 5715 5716 5717 5717 5716 5716 5716 5716 5715 5718 5716 5715 5713 5712 5711 5710 5709 5708 5707 5705 5704 5703 5702 5700 5699 5697 5695 5692 5690 5687 5684 5681 5678 5675 5672 5669 5666 5663 5660 5657
5709 5709 5709 5710 5711 5711 5711 5711 5712 5712 5711 5710 5710 5714 5710 5709 5708 5706 5705 5704 5704 5702 5701 5700 5698 5697 5696 5694 5692 5690 5688 5686 5683 5681 5677 5674 5671 5668 5665 5662 5659 5655 5652 5649
5703 5704 5704 5705 5707 5706 5705 5706 5706 5706 5705 5705 5705 5708 5704 5703 5702 5700 5699 5698 5697 5696 5695 5693 5692 5691 5689 5688 5686 5684 5682 5679 5677 5674 5670 5667 5664 5661 5658 5655 5651 5648 5644 5642
5697 5698 5699 5700 5700 5700 5700 5700 5700 5699 5698 5699 5699 5700 5699 5697 5696 5694 5693 5691 5690 5689 5688 5687 5686 5684 5683 5681 5679 5677 5675 5672 5670 5667 5663 5660 5656 5653 5650 5647 5643 5640 5637 5634
5689 5690 5691 5692 5692 5692 5693 5693 5693 5692 5693 5692 5693 5692 5692 5690 5689 5688 5686 5684 5683 5682 5681 5679 5678 5677 5676 5674 5672 5670 5667 5665 5662 5659 5656 5652 5649 5645 5642 5639 5635 5632 5629 5625
5681 5682 5683 5684 5684 5684 5685 5686 5686 5685 5685 5685 5684 5685 5684 5683 5681 5680 5679 5677 5676 5674 5673 5672 5670 5669 5667 5666 5664 5662 5659 5657 5654 5651 5648 5645 5641 5638 5634 5631 5627 5624 5620 5617
5673 5674 5675 5676 5676 5675 5677 5680 5679 5678 5678 5678 5677 5678 5676 5675 5673 5672 5671 5669 5668 5667 5665 5664 5662 5660 5659 5657 5655 5653 5651 5649 5646 5643 5640 5636 5633 5629 5626 5622 5619 5615 5612 5608
5665 5665 5664 5665 5666 5666 5672 5670 5670 5669 5670 5669 5668 5668 5667 5666 5665 5663 5662 5660 5659 5658 5657 5655 5653 5652 5650 5648 5646 5644 5642 5640 5637 5634 5631 5628 5624 5621 5617 5613 5610 5606 5603 5599
5655 5655 5654 5655 5654 5656 5661 5661 5660 5659 5660 5660 5658 5658 5657 5656 5655 5654 5652 5651 5650 5648 5647 5646 5644 5643 5641 5639 5637 5635 5633 5631 5628 5625 5622 5619 5615 5612 5608 5605 5601 5597 5593 5590
5645 5645 5645 5645 5644 5646 5652 5651 5648 5649 5649 5649 5647 5647 5646 5645 5645 5645 5642 5641 5640 5638 5637 5636 5634 5633 5631 5629 5627 5625 5623 5621 5618 5615 5612 5609 5605 5602 5599 5595 5591 5588 5584 5580
5633 5633 5634 5634 5632 5635 5640 5639 5637 5638 5639 5637 5635 5635 5634 5634 5634 5634 5632 5630 5629 5628 5626 5625 5624 5622 5621 5619 5617 5615 5613 5611 5608 5605 5602 5599 5595 5592 5588 5585 5581 5577 5573 5569
5622 5622 5622 5622 5622 5626 5628 5626 5626 5626 5625 5624 5623 5623 5623 5623 5622 5621 5620 5619 5618 5616 5615 5614 5613 5612 5610 5608 5606 5604 5602 5600 5598 5595 5592 5588 5585 5581 5578 5574 5570 5566 5562 5558
5609 5611 5611 5611 5613 5614 5614 5613 5613 5612 5612 5612 5612 5611 5611 5611 5610 5610 5609 5607 5606 5605 5604 5603 5601 5600 5598 5596 5594 5593 5591 5588 5586 5583 5580 5577 5574 5570 5567 5563 5559 5555 5551 5547
5596 5597 5597 5598 5600 5601 5600 5599 5599 5599 5599 5598 5598 5599 5598 5598 5597 5597 5596 5595 5594 5593 5592 5590 5589 5588 5586 5585 5583 5580 5578 5576 5574 5571 5568 5565 5562 5559 5555 5551 5548 5544 5540 5536
5583 5583 5583 5584 5587 5587 5587 5586 5585 5585 5585 5585 5585 5585 5585 5584 5584 5583 5583 5582 5581 5580 5579 5578 5577 5575 5573 5572 5570 5568 5566 5563 5561 5558 5555 5552 5549 5546 5543 5540 5536 5532 5529 5525
5571 5571 5570 5571 5574 5572 5573 5571 5571 5571 5571 5571 5571 5571 5570 5570 5570 5569 5569 5568 5567 5566 5565 5564 5563 5561 5560 5558 5556 5554 5552 5550 5547 5545 5542 5539 5536 5534 5530 5527 5524 5520 5517 5513